Temp
-14 -13 -14 -13 -13 -13 -13 -13 -13 -13 -12 -13 -12 -13 -12 -12 -12 -11 -11 -10 -10 -10 -10 -9 -8 -8 -8 -8 -8 -8 -8 -8 -9 -9 -8 -8 -8 -8 -8 -8 -8 -8 -8 -8 -8
-14 -14 -14 -14 -14 -14 -13 -13 -13 -13 -13 -12 -12 -12 -12 -12 -11 -12 -11 -11 -11 -10 -10 -10 -9 -9 -9 -8 -8 -8 -8 -10 -8 -8 -8 -8 -8 -8 -9 -8 -8 -8 -8 -8 -8
-15 -15 -15 -15 -14 -14 -14 -13 -13 -13 -13 -13 -12 -12 -12 -11 -11 -12 -12 -11 -11 -10 -10 -10 -9 -9 -9 -9 -9 -9 -9 -8 -8 -8 -8 -8 -8 -8 -8 -8 -8 -8 -8 -8 -8
-16 -16 -16 -16 -16 -15 -15 -14 -14 -14 -13 -13 -13 -12 -12 -12 -11 -11 -12 -12 -11 -11 -11 -10 -10 -10 -9 -9 -9 -9 -9 -8 -8 -9 -9 -9 -8 -8 -8 -8 -8 -8 -8 -8 -8
-17 -17 -17 -17 -16 -16 -15 -15 -14 -14 -14 -13 -13 -12 -12 -12 -11 -11 -11 -11 -11 -11 -11 -11 -11 -11 -11 -10 -10 -9 -9 -8 -8 -9 -9 -9 -9 -8 -9 -9 -9 -8 -8 -8 -8
-17 -17 -17 -17 -17 -17 -16 -16 -15 -14 -13 -13 -13 -12 -12 -12 -11 -11 -11 -11 -11 -11 -11 -11 -11 -11 -11 -10 -10 -10 -10 -9 -9 -9 -9 -10 -9 -9 -9 -9 -9 -9 -9 -8 -8
-17 -17 -18 -18 -17 -17 -16 -15 -14 -14 -13 -13 -13 -12 -12 -11 -11 -11 -11 -11 -11 -11 -11 -11 -11 -11 -12 -11 -11 -10 -10 -10 -9 -9 -10 -10 -10 -10 -10 -10 -9 -9 -9 -9 -9
-17 -18 -18 -17 -17 -17 -16 -15 -14 -14 -14 -13 -13 -12 -12 -12 -12 -11 -11 -11 -11 -11 -10 -10 -10 -10 -11 -11 -11 -10 -10 -10 -10 -10 -10 -10 -9 -10 -10 -10 -10 -10 -10 -10 -9
-17 -18 -17 -17 -17 -17 -16 -15 -15 -14 -14 -13 -13 -13 -12 -12 -12 -11 -11 -11 -11 -11 -10 -10 -10 -10 -10 -10 -10 -10 -10 -10 -10 -10 -10 -10 -10 -10 -10 -10 -10 -10 -10 -10 -10
-17 -17 -17 -17 -17 -16 -16 -15 -15 -14 -14 -14 -13 -13 -13 -12 -12 -12 -11 -11 -11 -11 -11 -11 -11 -10 -10 -10 -11 -10 -10 -10 -9 -10 -10 -10 -9 -9 -9 -9 -9 -10 -10 -10 -10
-17 -17 -17 -17 -16 -16 -16 -16 -15 -15 -14 -14 -14 -13 -13 -13 -12 -12 -12 -11 -11 -11 -11 -11 -11 -11 -10 -10 -10 -10 -10 -10 -10 -10 -10 -10 -10 -10 -10 -10 -9 -9 -9 -9 -9
-17 -17 -17 -17 -16 -16 -16 -16 -15 -15 -15 -14 -14 -14 -13 -13 -13 -12 -12 -12 -12 -12 -12 -12 -11 -11 -11 -11 -11 -11 -11 -11 -11 -11 -11 -11 -11 -11 -10 -10 -10 -10 -10 -10 -9
-17 -17 -17 -17 -17 -17 -16 -16 -16 -15 -15 -15 -14 -14 -14 -13 -13 -13 -13 -12 -12 -12 -12 -11 -12 -12 -12 -12 -12 -11 -11 -11 -12 -12 -12 -12 -12 -11 -11 -11 -11 -10 -10 -10 -10
-17 -17 -17 -17 -17 -17 -17 -16 -16 -16 -15 -15 -15 -14 -14 -14 -13 -13 -13 -13 -13 -12 -12 -12 -12 -12 -12 -12 -12 -12 -12 -12 -12 -12 -12 -12 -12 -12 -12 -11 -11 -11 -11 -10 -10
-17 -17 -17 -17 -17 -17 -17 -17 -16 -16 -16 -15 -14 -14 -14 -14 -14 -14 -14 -13 -13 -13 -13 -13 -13 -13 -13 -13 -13 -12 -13 -12 -12 -12 -13 -12 -13 -11 -12 -12 -12 -12 -12 -11 -11
-17 -18 -17 -17 -17 -17 -17 -17 -17 -16 -16 -15 -15 -15 -14 -14 -14 -14 -14 -14 -14 -14 -14 -13 -13 -13 -13 -13 -13 -13 -13 -13 -13 -13 -13 -13 -13 -13 -12 -12 -12 -12 -12 -12 -11
-17 -18 -17 -17 -17 -17 -17 -17 -17 -16 -16 -15 -15 -15 -15 -14 -14 -14 -14 -14 -14 -13 -13 -13 -13 -13 -13 -13 -13 -13 -14 -14 -14 -14 -14 -13 -13 -13 -13 -13 -12 -12 -12 -12 -12
-18 -18 -18 -18 -18 -18 -17 -17 -16 -16 -16 -16 -16 -15 -15 -14 -14 -14 -14 -14 -14 -14 -14 -14 -14 -13 -13 -13 -14 -14 -14 -14 -14 -15 -14 -14 -13 -13 -13 -13 -13 -13 -13 -13 -13
-18 -18 -18 -18 -18 -18 -18 -17 -16 -16 -16 -16 -16 -15 -15 -15 -14 -14 -14 -14 -14 -14 -14 -14 -13 -14 -14 -14 -14 -14 -14 -14 -14 -14 -14 -14 -14 -13 -13 -13 -13 -13 -13 -13 -13
-18 -18 -18 -18 -18 -18 -18 -17 -17 -17 -17 -17 -16 -16 -15 -15 -15 -15 -15 -14 -15 -14 -15 -14 -14 -14 -14 -14 -15 -15 -14 -14 -14 -14 -15 -14 -14 -14 -14 -14 -14 -14 -14 -14 -14
-18 -18 -18 -19 -19 -18 -17 -17 -17 -17 -17 -17 -17 -16 -16 -16 -15 -15 -15 -15 -15 -15 -15 -15 -15 -15 -15 -15 -15 -15 -15 -15 -15 -15 -15 -15 -15 -14 -14 -14 -14 -14 -15 -15 -15
-19 -18 -19 -19 -19 -18 -17 -18 -17 -18 -18 -17 -17 -17 -16 -16 -16 -16 -15 -15 -15 -15 -15 -15 -15 -15 -15 -15 -15 -15 -15 -15 -15 -15 -15 -15 -15 -15 -15 -15 -15 -15 -15 -15 -15
-19 -19 -19 -19 -19 -18 -18 -18 -18 -18 -18 -18 -17 -17 -17 -16 -16 -16 -16 -16 -15 -15 -15 -15 -15 -15 -15 -15 -15 -15 -15 -15 -15 -15 -15 -15 -14 -15 -15 -15 -15 -15 -16 -16 -16
-20 -19 -19 -19 -19 -19 -18 -18 -18 -18 -18 -18 -17 -17 -17 -17 -16 -16 -16 -16 -16 -16 -16 -15 -15 -15 -15 -15 -15 -15 -15 -15 -15 -15 -15 -15 -15 -15 -15 -16 -16 -16 -16 -16 -16
-20 -20 -19 -19 -19 -19 -19 -18 -18 -18 -18 -18 -17 -17 -17 -17 -17 -16 -16 -16 -16 -16 -16 -16 -16 -16 -16 -15 -15 -15 -15 -16 -16 -16 -16 -16 -16 -15 -16 -16 -16 -16 -16 -16 -16
-21 -20 -20 -19 -19 -19 -19 -18 -18 -18 -18 -18 -18 -18 -18 -17 -17 -17 -17 -16 -16 -16 -16 -16 -16 -16 -16 -16 -16 -16 -16 -16 -16 -16 -16 -16 -16 -16 -16 -16 -16 -16 -17 -17 -17
-22 -21 -20 -20 -20 -19 -19 -18 -19 -19 -19 -18 -19 -18 -18 -18 -17 -17 -17 -17 -17 -16 -16 -16 -16 -16 -16 -16 -16 -16 -16 -16 -16 -16 -16 -16 -16 -16 -16 -17 -17 -17 -17 -17 -17
Height
5769 5768 5768 5770 5773 5776 5782 5787 5792 5797 5802 5807 5812 5816 5819 5822 5825 5827 5831 5837 5841 5845 5848 5851 5855 5858 5862 5867 5870 5874 5879 5881 5880 5880 5875 5884 5886 5888 5890 5886 5890 5892 5892 5894 5894
5761 5758 5757 5760 5763 5766 5772 5779 5785 5789 5795 5801 5805 5810 5814 5816 5819 5821 5826 5830 5835 5839 5843 5846 5850 5854 5858 5862 5866 5869 5873 5870 5869 5875 5877 5879 5880 5883 5884 5883 5889 5890 5890 5890 5892
5751 5748 5747 5749 5752 5756 5762 5769 5777 5782 5788 5794 5799 5804 5808 5811 5814 5818 5818 5825 5829 5833 5837 5841 5845 5848 5853 5856 5860 5863 5862 5866 5868 5871 5871 5874 5874 5879 5878 5881 5885 5886 5887 5888 5889
5744 5740 5740 5742 5743 5748 5753 5760 5769 5775 5781 5787 5792 5797 5802 5806 5808 5814 5817 5820 5824 5827 5831 5835 5839 5843 5846 5851 5854 5857 5858 5860 5864 5864 5866 5868 5868 5873 5873 5876 5879 5881 5882 5884 5885
5738 5735 5735 5736 5738 5741 5746 5753 5761 5769 5775 5781 5786 5791 5796 5800 5804 5808 5812 5816 5820 5823 5825 5828 5833 5837 5840 5845 5849 5849 5854 5855 5858 5860 5861 5863 5863 5867 5868 5870 5872 5875 5876 5878 5880
5733 5731 5730 5731 5734 5737 5742 5748 5755 5763 5769 5775 5780 5785 5790 5793 5799 5803 5806 5810 5814 5817 5820 5823 5827 5830 5835 5839 5842 5846 5847 5848 5851 5855 5857 5858 5857 5859 5865 5864 5864 5866 5870 5873 5874
5731 5729 5727 5729 5731 5734 5739 5744 5751 5758 5763 5768 5773 5778 5783 5790 5792 5796 5801 5805 5808 5811 5815 5818 5822 5824 5830 5833 5836 5839 5841 5841 5846 5849 5851 5852 5851 5853 5857 5858 5859 5860 5861 5865 5865
5728 5727 5726 5728 5730 5732 5736 5740 5747 5753 5758 5763 5768 5773 5777 5781 5786 5790 5794 5799 5802 5805 5810 5812 5816 5820 5823 5828 5830 5833 5836 5837 5841 5843 5845 5846 5840 5848 5849 5852 5853 5853 5856 5855 5857
5726 5726 5725 5727 5729 5731 5734 5737 5743 5749 5754 5758 5763 5767 5771 5775 5780 5784 5789 5793 5796 5800 5804 5807 5810 5814 5817 5821 5824 5826 5829 5830 5837 5837 5838 5838 5837 5843 5843 5844 5845 5847 5847 5849 5850
5724 5725 5723 5725 5728 5730 5732 5735 5739 5744 5749 5753 5757 5763 5767 5771 5774 5778 5783 5787 5790 5794 5798 5802 5804 5808 5811 5814 5818 5820 5822 5825 5827 5830 5831 5832 5832 5834 5837 5837 5838 5838 5839 5840 5841
5722 5723 5722 5723 5725 5728 5731 5733 5738 5742 5744 5749 5753 5757 5760 5765 5768 5772 5777 5781 5784 5788 5792 5795 5798 5801 5804 5808 5811 5814 5816 5819 5821 5822 5823 5825 5826 5827 5828 5829 5831 5831 5831 5831 5832
5720 5720 5721 5721 5722 5725 5728 5730 5733 5738 5740 5743 5746 5751 5754 5759 5763 5767 5771 5775 5779 5782 5786 5790 5792 5796 5799 5802 5805 5807 5810 5813 5815 5816 5816 5819 5820 5820 5821 5821 5822 5823 5824 5823 5823
5717 5717 5718 5719 5719 5721 5724 5726 5729 5732 5735 5738 5741 5745 5750 5754 5758 5762 5766 5769 5773 5777 5780 5783 5788 5790 5793 5796 5799 5802 5804 5807 5810 5811 5811 5812 5813 5813 5814 5813 5814 5814 5815 5816 5815
5712 5713 5713 5715 5718 5717 5720 5722 5724 5726 5729 5733 5736 5741 5744 5749 5753 5757 5760 5766 5768 5771 5774 5778 5781 5785 5788 5791 5794 5797 5800 5802 5804 5805 5806 5808 5803 5808 5807 5807 5806 5806 5805 5804 5805
5706 5707 5709 5710 5713 5715 5716 5718 5719 5721 5723 5728 5731 5736 5739 5744 5749 5752 5755 5759 5762 5766 5770 5774 5776 5779 5783 5786 5789 5792 5794 5797 5798 5799 5800 5802 5802 5796 5801 5801 5801 5800 5798 5796 5795
5700 5700 5703 5704 5706 5709 5711 5713 5714 5717 5718 5722 5726 5729 5733 5738 5742 5746 5750 5754 5757 5760 5764 5767 5771 5775 5779 5781 5783 5786 5789 5791 5792 5793 5794 5795 5796 5793 5793 5794 5793 5792 5790 5788 5786
5692 5693 5695 5698 5700 5702 5704 5706 5709 5709 5715 5719 5722 5725 5728 5732 5736 5740 5745 5748 5751 5756 5759 5761 5765 5769 5772 5775 5777 5780 5782 5784 5787 5788 5787 5789 5789 5787 5787 5787 5785 5784 5782 5780 5777
5681 5684 5686 5690 5692 5694 5697 5699 5700 5707 5710 5714 5717 5719 5722 5726 5730 5734 5738 5742 5745 5749 5753 5756 5759 5762 5765 5768 5771 5773 5776 5778 5780 5782 5780 5782 5781 5781 5781 5780 5779 5776 5773 5771 5768
5669 5673 5676 5680 5683 5686 5688 5688 5696 5701 5704 5708 5710 5713 5717 5720 5725 5728 5731 5735 5739 5742 5746 5748 5752 5756 5759 5762 5765 5767 5769 5772 5774 5776 5775 5775 5776 5774 5774 5773 5771 5769 5767 5764 5761
5655 5660 5665 5670 5672 5675 5676 5682 5690 5695 5699 5702 5705 5709 5713 5716 5719 5722 5725 5729 5732 5735 5740 5742 5747 5749 5753 5756 5759 5761 5765 5766 5767 5769 5770 5769 5767 5766 5767 5766 5764 5762 5759 5757 5754
5639 5645 5652 5656 5660 5662 5664 5676 5683 5688 5692 5696 5700 5704 5707 5710 5714 5716 5720 5724 5727 5730 5733 5737 5740 5745 5747 5750 5753 5756 5757 5759 5761 5763 5764 5764 5761 5760 5760 5758 5756 5754 5752 5749 5746
5621 5629 5638 5641 5646 5650 5658 5670 5673 5679 5685 5689 5694 5698 5701 5705 5708 5711 5714 5717 5721 5724 5728 5731 5734 5737 5740 5744 5747 5749 5751 5753 5755 5757 5757 5757 5753 5755 5753 5752 5750 5748 5747 5744 5741
5603 5612 5619 5624 5632 5639 5652 5660 5665 5670 5676 5683 5687 5691 5695 5699 5702 5705 5708 5713 5716 5719 5723 5726 5729 5732 5735 5739 5740 5743 5745 5747 5748 5749 5750 5751 5747 5748 5748 5746 5744 5742 5740 5738 5736
5583 5592 5602 5611 5620 5630 5641 5648 5655 5660 5667 5674 5679 5683 5687 5690 5695 5699 5703 5707 5711 5715 5718 5721 5724 5727 5730 5734 5737 5738 5740 5740 5741 5743 5743 5743 5741 5741 5740 5739 5738 5737 5735 5731 5729
5560 5576 5587 5597 5606 5619 5627 5636 5642 5649 5656 5663 5669 5676 5680 5684 5688 5693 5697 5701 5705 5709 5713 5717 5720 5723 5725 5728 5730 5732 5734 5734 5735 5736 5736 5735 5734 5732 5733 5732 5730 5729 5727 5724 5721
5537 5557 5568 5582 5588 5599 5612 5623 5632 5640 5648 5655 5662 5669 5672 5677 5683 5688 5693 5695 5700 5704 5707 5711 5715 5718 5721 5723 5724 5726 5727 5728 5728 5728 5728 5728 5727 5725 5724 5724 5722 5721 5719 5716 5713
5516 5533 5545 5561 5570 5583 5602 5614 5622 5630 5637 5646 5653 5659 5664 5668 5673 5679 5682 5686 5692 5696 5700 5705 5709 5712 5714 5716 5718 5720 5720 5720 5721 5721 5720 5720 5719 5718 5717 5717 5715 5714 5712 5709 5706
Wind_Speed
33 32 30 37 44 51 57 51 48 46 43 44 41 37 34 34 33 41 48 41 33 30 27 27 29 27 27 27 26 25 25 24 26 32 34 22 23 20 20 25 18 16 16 13 11
37 34 32 37 44 48 56 56 50 46 44 43 45 40 36 34 33 31 43 45 40 38 34 30 27 27 28 29 28 28 28 29 35 27 25 25 26 24 27 26 18 19 19 18 16
34 27 30 36 44 46 52 58 51 46 44 41 42 42 36 34 35 29 28 37 37 37 39 35 33 28 28 29 29 30 36 34 31 31 32 30 31 27 29 24 24 24 22 21 20
28 22 27 34 41 42 47 55 52 46 43 40 38 40 35 35 37 30 28 29 33 30 35 38 38 35 32 32 30 32 34 34 31 34 33 33 35 31 32 29 28 26 26 25 24
23 22 26 31 33 35 40 48 49 43 42 40 38 38 36 36 35 33 32 32 32 30 28 36 39 36 35 33 31 35 32 33 34 35 33 33 35 33 34 33 31 30 30 29 29
20 19 20 25 26 26 28 35 39 38 38 38 37 37 37 38 35 35 34 33 33 32 30 30 36 38 37 35 36 33 34 33 34 35 33 33 35 36 32 34 35 33 33 32 33
16 16 15 18 21 23 26 27 30 32 34 35 35 37 36 35 34 34 34 33 33 33 32 31 30 36 36 34 33 33 34 34 33 35 34 35 38 37 34 35 35 36 36 34 36
14 13 13 18 20 23 25 27 28 29 32 33 34 36 35 34 33 33 32 33 32 33 32 30 30 31 36 36 36 37 36 37 36 35 35 34 45 38 39 38 38 38 37 38 38
11 12 12 17 18 20 24 26 28 30 31 31 31 32 32 32 32 32 32 32 31 31 32 31 30 29 30 32 32 34 35 37 32 36 36 36 42 36 37 38 41 41 41 41 42
11 12 14 15 18 20 22 25 27 29 30 30 30 30 30 30 30 30 31 30 30 30 30 30 30 30 31 31 28 33 35 35 35 35 37 37 39 39 39 40 40 42 43 44 44
13 13 14 17 18 20 22 23 26 28 29 29 28 29 27 29 29 29 29 29 29 29 29 29 29 31 31 31 31 30 33 33 32 33 34 35 37 38 38 40 42 42 44 45 46
16 14 16 17 20 21 22 23 25 25 28 29 29 29 29 29 29 28 28 27 27 28 27 28 28 27 29 28 29 29 31 29 28 28 30 29 31 34 37 37 39 41 43 45 47
18 17 17 18 20 22 25 25 26 27 28 29 30 31 29 30 28 28 28 27 27 27 28 29 28 27 27 27 27 28 27 26 25 26 28 28 30 32 33 36 38 40 42 43 46
23 21 19 20 20 21 22 25 26 27 28 30 30 31 31 30 30 30 29 27 28 28 27 26 27 27 26 26 25 25 25 25 25 24 28 25 31 28 31 32 34 36 39 41 42
26 26 24 23 23 22 23 24 25 26 30 31 33 29 31 32 29 30 29 29 28 25 27 26 26 26 26 25 25 23 24 24 24 23 23 23 22 35 27 29 31 33 36 39 42
30 29 28 27 26 26 24 25 27 29 31 29 30 32 32 32 32 29 30 28 27 28 28 27 26 27 26 25 24 24 24 23 21 20 21 21 22 28 27 28 29 31 31 32 35
35 33 32 30 28 29 28 28 31 32 29 28 25 27 30 30 30 30 29 29 30 28 29 29 28 27 27 26 25 24 21 18 18 19 21 19 22 26 25 26 28 28 28 28 29
42 38 36 34 33 32 33 33 34 28 28 25 26 26 28 30 31 31 31 31 30 28 27 27 28 29 27 27 23 22 20 22 19 16 22 21 24 24 25 25 24 25 25 24 24
47 44 40 38 37 36 37 40 32 28 30 26 27 28 28 28 29 30 31 32 31 30 31 31 29 26 26 24 23 22 22 20 22 21 21 25 24 26 25 24 23 22 23 23 22
52 49 46 42 41 41 43 40 34 30 29 29 29 26 26 26 27 29 29 29 30 30 28 28 25 26 24 23 22 23 21 23 23 21 21 22 24 27 21 22 23 23 23 21 22
54 54 51 49 47 47 49 39 34 32 33 31 31 28 28 28 28 29 29 28 29 28 27 26 25 25 23 24 24 23 23 23 21 21 20 19 23 21 21 21 22 23 22 22 24
57 58 55 55 53 52 48 39 39 36 37 36 31 31 29 28 28 29 28 29 27 26 26 25 24 24 25 22 22 21 21 20 21 21 20 19 28 21 21 21 22 22 21 21 23
60 61 61 61 59 55 46 43 42 41 40 38 35 33 31 30 30 29 29 27 26 25 25 25 25 23 23 22 22 21 20 20 20 18 19 20 27 22 21 20 21 22 22 22 22
65 64 66 64 62 57 49 48 47 46 44 42 39 36 34 35 32 29 27 27 27 26 26 26 24 23 24 20 19 19 18 18 19 20 20 21 25 23 22 22 21 21 22 23 24
69 66 66 67 65 61 56 52 52 51 48 45 44 39 36 36 35 34 32 30 29 28 28 26 25 24 22 20 19 17 16 16 18 20 21 22 24 26 23 23 23 22 22 24 25
75 69 69 70 71 67 61 55 54 53 50 46 44 40 39 37 35 34 33 34 32 31 31 29 27 25 23 19 15 13 12 12 13 16 18 21 23 27 26 27 26 23 23 25 27
76 74 73 74 74 71 63 56 56 55 54 49 43 41 41 40 40 38 40 40 36 35 34 32 29 27 23 19 15 11 13 14 15 16 18 21 24 26 28 28 28 26 25 26 27
Wind_Direction
270 263 252 244 242 236 232 235 232 231 229 229 231 233 237 231 242 236 236 232 230 229 227 226 225 224 226 223 219 219 219 225 233 226 240 234 234 232 239 248 243 250 266 259 276
279 272 258 246 240 236 231 233 234 230 231 230 232 235 235 236 240 235 232 236 240 237 235 239 224 224 226 226 224 221 219 217 234 237 247 243 242 237 239 244 242 249 254 261 265
284 271 254 243 236 235 231 230 234 231 229 229 231 234 233 229 236 232 229 226 238 238 236 235 230 226 226 228 224 225 223 232 237 235 237 240 245 244 246 251 245 248 248 252 258
284 271 257 247 240 234 231 229 230 232 228 228 228 231 230 226 233 229 227 229 229 233 229 229 233 230 228 230 227 229 232 233 236 240 240 241 246 245 248 248 246 247 249 250 251
285 274 255 248 242 233 231 229 229 233 227 227 228 229 230 227 226 230 230 229 230 230 233 232 230 229 231 231 230 235 233 236 238 239 241 244 247 246 248 253 252 246 246 249 252
291 275 254 244 232 226 226 228 230 230 227 225 224 226 227 228 228 228 231 231 230 231 231 233 232 228 230 232 236 241 241 240 243 242 242 244 247 250 247 250 252 252 250 246 248
292 269 239 224 215 213 213 211 221 224 223 222 222 223 224 226 227 227 227 229 229 231 233 232 234 233 230 231 237 244 245 247 245 245 244 248 251 249 250 251 252 255 255 251 246
292 260 221 222 219 210 207 202 208 214 218 219 219 221 222 223 226 226 226 227 227 229 231 233 232 232 233 237 240 239 242 246 245 248 245 245 250 252 254 251 252 252 254 257 255
285 252 224 229 225 215 205 203 204 208 214 216 219 221 220 221 224 225 227 226 225 227 229 231 232 232 234 234 235 237 243 245 246 248 248 248 254 254 255 256 256 256 258 258 260
277 259 224 230 229 223 215 208 207 208 212 214 217 220 220 222 222 224 225 226 227 228 229 229 230 231 233 236 239 237 241 244 249 248 249 252 256 257 257 259 259 261 260 261 262
274 257 240 225 228 230 224 220 214 213 214 216 219 223 222 223 223 223 225 225 226 228 228 228 227 228 231 233 239 243 241 243 245 247 249 251 254 257 258 257 257 258 261 263 264
273 255 243 233 227 229 230 227 224 221 221 221 221 221 219 223 223 221 223 224 223 224 225 226 230 228 229 230 232 235 241 243 245 249 253 254 257 259 261 262 263 263 263 263 263
262 257 247 234 231 228 230 230 229 229 226 226 226 225 223 222 223 223 223 223 223 222 223 225 226 227 227 228 229 234 239 240 246 248 253 259 259 261 263 266 267 267 267 266 266
262 252 245 241 230 227 226 227 228 229 228 226 225 224 222 220 220 222 221 221 222 223 221 222 222 220 221 225 228 232 236 240 244 247 252 259 271 265 270 272 273 274 274 273 271
261 255 244 238 235 226 224 226 224 225 230 227 226 224 222 221 223 221 220 219 217 216 216 217 218 221 226 231 235 237 238 240 244 250 256 258 266 271 271 273 273 274 274 276 277
258 253 247 239 233 231 225 228 227 226 228 226 225 226 224 222 221 221 221 220 220 222 223 224 225 228 231 232 233 233 235 239 244 249 256 258 256 269 272 273 274 277 280 281 282
250 251 247 239 234 232 229 229 231 228 228 226 227 225 224 224 223 223 222 223 225 227 227 226 227 226 225 226 229 231 231 235 239 242 236 248 252 265 271 275 279 281 282 286 292
247 245 245 240 234 230 232 229 231 231 231 228 228 227 224 224 224 224 224 226 224 225 224 225 224 226 227 230 230 226 224 222 220 226 249 251 260 270 273 276 278 282 290 295 299
245 241 241 239 235 231 230 234 228 228 229 225 227 227 225 224 223 223 223 222 222 221 220 221 228 223 222 221 223 223 224 230 230 237 249 259 267 271 273 276 283 286 289 297 302
242 240 237 236 234 232 231 232 229 227 225 222 222 223 224 220 219 218 218 219 216 217 216 220 214 214 218 221 218 221 224 226 230 239 246 259 269 271 274 280 286 290 296 302 305
237 237 234 234 233 232 233 230 228 224 221 217 217 217 216 218 216 215 215 214 211 209 210 210 214 215 215 216 219 222 226 231 237 241 243 255 262 274 279 283 288 292 300 306 307
235 234 232 230 231 233 231 227 224 218 220 217 215 214 215 216 216 214 212 209 206 205 207 209 212 210 215 218 221 226 229 231 234 240 246 250 266 271 279 281 286 290 296 300 305
235 231 229 229 230 232 229 226 222 217 217 217 214 213 215 217 215 212 210 209 206 204 203 204 205 207 208 214 219 222 226 231 238 244 250 255 264 268 272 278 282 287 292 296 302
234 230 229 227 228 230 226 224 221 217 215 216 216 214 214 218 217 216 212 210 207 205 204 203 204 206 207 212 218 224 229 237 244 248 250 253 268 264 272 274 280 283 286 290 298
231 229 227 226 226 227 225 221 220 215 215 216 218 216 219 220 221 219 214 211 210 210 209 208 208 209 209 215 218 225 233 240 247 252 254 257 265 271 269 273 281 284 287 290 299
230 226 225 223 223 220 222 221 219 217 215 217 218 220 221 220 223 226 221 219 220 219 214 212 210 207 208 209 217 226 240 251 261 267 265 264 262 270 273 278 283 285 288 291 299
228 221 221 221 222 220 219 219 217 217 215 214 212 218 223 222 222 220 217 216 216 216 213 212 208 208 211 218 228 241 256 272 279 287 287 279 273 272 272 275 280 283 289 291 296